Miscellaneous Local Product
Issued by NWS Hastings, NE

Home | Current Version | Previous Version | Text Only | Print | Product List | Glossary On
Versions: 1 2 3 4 5 6 7 8 9 10 11 12 13 14 15 16 17 18 19 20 21 22 23 24 25 26 27 28 29 30 31 32 33 34 35 36 37 38 39 40 41 42 43 44 45 46 47 48 49 50
000
AXUS43 KGID 231102
MISGRI

GID CWA HOURLY WEATHER ROUNDUP
NATIONAL WEATHER SERVICE HASTINGS NE
600 AM CDT TUE MAY 23 2017

NOTE: "FAIR" INDICATES FEW OR NO CLOUDS BELOW 12,000 FEET WITH NO
SIGNIFICANT WEATHER AND/OR OBSTRUCTIONS TO VISIBILITY.

...SOUTH CENTRAL NEBRASKA...

CITY           SKY/WX    TMP DP  RH WIND       PRES   REMARKS
GRAND ISLAND   CLEAR     45  43  93 W9        29.99S
HASTINGS       CLEAR     46  42  86 NW9       30.00S
KEARNEY        CLOUDY    48  41  76 NW9       30.01F
ORD            CLOUDY    47  42  83 W7        29.97F
YORK           CLEAR     46  45  93 NW10      29.96S
AURORA         CLEAR     46  43  90 W7        29.98S
LEXINGTON      CLOUDY    45  42  89 W13       30.04F
HOLDREGE       CLOUDY    46  43  90 NW9       30.02F
HEBRON         CLEAR     50  46  88 NW7       29.96F

...NEBRASKA PANHANDLE...

CITY           SKY/WX    TMP DP  RH WIND       PRES   REMARKS
CHADRON        PTCLDY    43  39  86 NW13      30.12F
ALLIANCE       MOCLDY    37  35  92 W8        30.11F WCI  31
SCOTTSBLUFF    CLEAR     36  33  89 W5        30.16F WCI  32
SIDNEY         CLEAR     36  34  92 NW10      30.15S WCI  28

...WESTERN AND NORTH CENTRAL NEBRASKA...

CITY           SKY/WX    TMP DP  RH WIND       PRES   REMARKS
VALENTINE      CLOUDY    50  41  71 NW14      30.01S
AINSWORTH      CLOUDY    49  44  83 NW14G21   29.99S
ONEILL         CLOUDY    48  43  84 CALM      29.95F
BROKEN BOW     CLOUDY    47  42  83 W14       30.00F
IMPERIAL       CLOUDY    43  38  82 NW10      30.10F
NORTH PLATTE   CLOUDY    43  41  93 W9        30.06F
MCCOOK         CLEAR     42  40  92 NW14      30.06F

...EASTERN NEBRASKA...

CITY           SKY/WX    TMP DP  RH WIND       PRES   REMARKS
NORFOLK        CLOUDY    46  42  86 W6        29.93F
SO SIOUX CITY  PTCLDY    45  43  93 W5        29.91S
TEKAMAH        CLEAR     47  42  83 NW10      29.91S
COLUMBUS         N/A    N/A N/A N/A MISG        N/A
ALBION         CLOUDY    45  42  90 NW3       29.96S
OMAHA EPPLEY   PTCLDY    48  42  80 NW8       29.91S
OFFUTT AFB     PTCLDY    48  44  84 NW8       29.90S
MILLARD        PTCLDY    52  46  80 NW8       29.92S
LINCOLN        CLEAR     50  44  80 NW10      29.95S
NEBRASKA CITY  CLOUDY    49  44  83 NW7       29.91S
BEATRICE       MOCLDY    49  46  92 NW6       29.93S
FALLS CITY     CLOUDY    51  47  86 NW10      29.90S

...NORTHERN KANSAS...

CITY           SKY/WX    TMP DP  RH WIND       PRES   REMARKS
GOODLAND       CLEAR     40  38  93 NW13      30.12S WCI  32
HILL CITY      PTCLDY    45  43  93 NW7       30.06F
HAYS           CLEAR     47  45  93 NW10      30.03F
RUSSELL        CLEAR     47  44  90 NW13      30.00F
CONCORDIA      PTCLDY    49  48  97 NW8       29.97S
SALINA         PTCLDY    53  49  86 NW13      29.96S
TOPEKA         LGT RAIN  55  53  93 NW9       29.90R



USA.gov is the U.S. government's official web portal to all federal, state and local government web resources and services.